Weather History for Hillsdale, MI

Change the Weather History Date:

Saturday, April 20, 2013

  Actual Average Record
Temperature  
Mean Temperature 35 °F -  
Max Temperature 40 °F 62 °F 85 °F (1985)
Min Temperature 30 °F 39 °F 22 °F (1956)
Degree Days  
Heating Degree Days 30    
Moisture  
Dew Point 21 °F    
Average Humidity 60    
Maximum Humidity 90    
Minimum Humidity 43    
Precipitation  
Precipitation 0.00 in - - ()
Sea Level Pressure  
Sea Level Pressure 30.16 in    
Wind  
Wind Speed 13 mph (WNW)    
Max Wind Speed 18 mph    
Max Gust Speed 26 mph    
Visibility 10 miles    
Events Snow    
Averages and records for this station are not official NWS values.
T = Trace of Precipitation, MM = Missing Value Source: NWS Daily Summary

Daily Weather History Graph

Daily Weather History Graph

Search for Another Location

Airport:

Trip Planner

Search our weather history database for the weather conditions in past years. The results will help you decide how hot, cold, wet, or windy it might be!

Date:

Astronomy

Apr. 20, 2013 Rise Set
Actual Time 6:49 AM EDT 8:25 PM EDT
Civil Twilight 6:20 AM EDT 8:54 PM EDT
Nautical Twilight 5:45 AM EDT 9:30 PM EDT
Astronomical Twilight 5:07 AM EDT 10:08 PM EDT
Moon 3:03 PM EDT 3:44 AM EDT
Length of Visible Light 14h 34m
Length of Day
13h 35m
Waxing Gibbous, 71% of the Moon is Illuminated
Apr 20
Waxing Gibbous
Apr 25
Full
May 2
Last Quarter
May 9
New
May 18
First Quarter

Hourly Weather History & Observations

Time (EDT) Temp. Windchill Dew Point Humidity Pressure Visibility Wind Dir Wind Speed Gust Speed Precip Events Conditions
12:14 AM 35.1 °F 26.4 °F 31.6 °F 87% 29.78 in 7.0 mi WSW 12.7 mph 19.6 mph N/A Snow Light Snow
12:34 AM 35.1 °F 27.4 °F 31.3 °F 86% 29.78 in 7.0 mi West 10.4 mph 18.4 mph N/A   Overcast
4:00 AM 31.5 °F 21.4 °F 28.9 °F 90% 29.86 in 7.0 mi West 13.8 mph 21.9 mph N/A Snow Light Snow
4:14 AM 31.8 °F 21.8 °F 26.2 °F 80% 29.87 in 10.0 mi West 13.8 mph - N/A   Overcast
4:34 AM 31.5 °F 21.4 °F 25.9 °F 80% 29.88 in 10.0 mi West 13.8 mph - N/A   Overcast
4:55 AM 31.5 °F 22.3 °F 25.2 °F 78% 29.89 in 10.0 mi West 11.5 mph 18.4 mph N/A   Overcast
5:14 AM 31.3 °F 22.1 °F 26.2 °F 82% 29.90 in 10.0 mi West 11.5 mph - N/A   Mostly Cloudy
5:34 AM 31.5 °F 21.8 °F 27.0 °F 83% 29.91 in 10.0 mi West 12.7 mph 19.6 mph N/A   Overcast
5:55 AM 31.5 °F 20.5 °F 26.8 °F 83% 29.93 in 10.0 mi WNW 16.1 mph 20.7 mph N/A   Overcast
6:14 AM 31.5 °F 19.8 °F 22.6 °F 70% 29.94 in 10.0 mi WNW 18.4 mph 21.9 mph N/A   Overcast
6:35 AM 30.7 °F 22.0 °F 22.1 °F 70% 29.95 in 10.0 mi WNW 10.4 mph - N/A   Overcast
6:55 AM 30.6 °F 23.1 °F 22.6 °F 72% 29.97 in 10.0 mi West 8.1 mph - N/A   Overcast
7:14 AM 30.6 °F 20.7 °F 22.3 °F 71% 29.98 in 10.0 mi WNW 12.7 mph - N/A   Overcast
7:35 AM 30.6 °F 21.2 °F 22.5 °F 72% 29.99 in 10.0 mi WNW 11.5 mph - N/A Snow Light Snow
7:55 AM 30.7 °F 20.4 °F 21.2 °F 68% 30.01 in 10.0 mi WNW 13.8 mph 24.2 mph N/A   Overcast
8:14 AM 30.7 °F 20.9 °F 22.1 °F 70% 30.02 in 10.0 mi WNW 12.7 mph - N/A   Overcast
8:35 AM 31.5 °F 23.5 °F 20.7 °F 64% 30.03 in 10.0 mi WNW 9.2 mph - N/A   Mostly Cloudy
8:54 AM 31.5 °F 20.5 °F 20.5 °F 64% 30.04 in 10.0 mi WNW 16.1 mph 21.9 mph N/A   Scattered Clouds
9:14 AM 31.5 °F 20.9 °F 20.7 °F 64% 30.06 in 10.0 mi NW 15.0 mph 18.4 mph N/A   Mostly Cloudy
9:35 AM 31.5 °F 20.5 °F 20.7 °F 64% 30.08 in 10.0 mi NW 16.1 mph 26.5 mph N/A   Overcast
9:54 AM 32.4 °F 21.7 °F 21.6 °F 64% 30.08 in 10.0 mi WNW 16.1 mph 23.0 mph N/A   Overcast
10:14 AM 32.4 °F 21.7 °F 21.6 °F 64% 30.10 in 10.0 mi WNW 16.1 mph 25.3 mph N/A   Overcast
10:35 AM 33.4 °F 23.1 °F 22.1 °F 63% 30.11 in 10.0 mi WNW 16.1 mph - N/A   Overcast
11:15 AM 33.8 °F 23.5 °F 21.9 °F 62% 30.13 in 10.0 mi WNW 16.1 mph - N/A   Overcast
11:34 AM 34.3 °F 26.5 °F 22.8 °F 63% 30.14 in 10.0 mi WNW 10.4 mph 17.3 mph N/A   Overcast
11:55 AM 34.0 °F 23.8 °F 21.7 °F 61% 30.16 in 10.0 mi WNW 16.1 mph 24.2 mph N/A   Overcast
12:15 PM 35.2 °F 25.4 °F 21.4 °F 57% 30.16 in 10.0 mi WNW 16.1 mph 20.7 mph N/A   Overcast
12:34 PM 36.9 °F 27.1 °F 23.5 °F 59% 30.17 in 10.0 mi WNW 17.3 mph 21.9 mph N/A   Overcast
12:55 PM 36.7 °F 28.0 °F 23.4 °F 59% 30.17 in 10.0 mi WNW 13.8 mph 21.9 mph N/A   Overcast
1:15 PM 37.2 °F 27.9 °F 21.9 °F 54% 30.18 in 10.0 mi West 16.1 mph 21.9 mph N/A   Overcast
1:34 PM 37.0 °F 27.7 °F 22.6 °F 56% 30.19 in 10.0 mi West 16.1 mph 21.9 mph N/A   Overcast
1:55 PM 37.0 °F 28.1 °F 22.8 °F 56% 30.19 in 10.0 mi WNW 15.0 mph 20.7 mph N/A   Overcast
2:15 PM 37.4 °F 28.2 °F 22.3 °F 54% 30.20 in 10.0 mi West 16.1 mph - N/A   Overcast
2:34 PM 37.8 °F 28.6 °F 22.8 °F 55% 30.21 in 10.0 mi WNW 16.1 mph 20.7 mph N/A   Overcast
2:55 PM 37.9 °F 28.9 °F 22.6 °F 54% 30.22 in 10.0 mi West 16.1 mph 20.7 mph N/A   Overcast
3:14 PM 37.9 °F 28.5 °F 20.3 °F 49% 30.23 in 10.0 mi West 17.3 mph 20.7 mph N/A   Overcast
3:34 PM 38.1 °F 29.8 °F 21.9 °F 52% 30.23 in 10.0 mi West 13.8 mph 21.9 mph N/A   Overcast
3:55 PM 39.4 °F 30.7 °F 20.7 °F 47% 30.24 in 10.0 mi WNW 16.1 mph 21.9 mph N/A   Mostly Cloudy
4:14 PM 40.6 °F 33.0 °F 20.7 °F 45% 30.24 in 10.0 mi West 13.8 mph 19.6 mph N/A   Scattered Clouds
4:35 PM 39.0 °F 30.6 °F 21.0 °F 49% 30.25 in 10.0 mi WNW 15.0 mph 19.6 mph N/A   Overcast
4:55 PM 39.4 °F 31.1 °F 20.8 °F 47% 30.26 in 10.0 mi WNW 15.0 mph 19.6 mph N/A   Scattered Clouds
5:14 PM 40.5 °F 31.8 °F 19.8 °F 44% 30.26 in 10.0 mi West 17.3 mph 21.9 mph N/A   Scattered Clouds
5:35 PM 38.7 °F 29.5 °F 18.9 °F 45% 30.27 in 10.0 mi WNW 17.3 mph 20.7 mph N/A   Scattered Clouds
5:55 PM 38.7 °F 29.1 °F 19.2 °F 46% 30.28 in 10.0 mi NW 18.4 mph - N/A   Scattered Clouds
6:14 PM 39.0 °F 30.6 °F 18.0 °F 43% 30.29 in 10.0 mi West 15.0 mph - N/A   Scattered Clouds
6:35 PM 38.8 °F 31.2 °F 19.0 °F 45% 30.29 in 10.0 mi NW 12.7 mph - N/A   Scattered Clouds
6:55 PM 37.2 °F 29.1 °F 16.9 °F 44% 30.31 in 10.0 mi WNW 12.7 mph 19.6 mph N/A   Scattered Clouds
7:14 PM 37.6 °F 28.4 °F 16.9 °F 43% 30.31 in 10.0 mi WNW 16.1 mph 20.7 mph N/A   Scattered Clouds
7:35 PM 37.0 °F 29.3 °F 16.3 °F 43% 30.31 in 10.0 mi WNW 11.5 mph 18.4 mph N/A   Scattered Clouds
7:54 PM 36.5 °F 28.2 °F 16.7 °F 45% 30.32 in 10.0 mi NW 12.7 mph - N/A   Clear
8:14 PM 35.8 °F 27.8 °F 15.8 °F 44% 30.33 in 10.0 mi NW 11.5 mph - N/A   Clear
8:35 PM 34.3 °F 27.7 °F 16.3 °F 48% 30.33 in 10.0 mi NW 8.1 mph - N/A   Clear
8:54 PM 33.4 °F 28.1 °F 17.1 °F 51% 30.35 in 10.0 mi WNW 5.8 mph - N/A   Clear
9:14 PM 32.7 °F 27.3 °F 17.2 °F 53% 30.36 in 10.0 mi NW 5.8 mph - N/A   Clear
9:35 PM 32.4 °F 27.9 °F 17.4 °F 54% 30.37 in 10.0 mi NW 4.6 mph - N/A   Clear
9:54 PM 31.6 °F 27.0 °F 17.4 °F 56% 30.38 in 10.0 mi NW 4.6 mph - N/A   Clear
10:15 PM 31.3 °F 25.6 °F 18.0 °F 58% 30.39 in 10.0 mi NNW 5.8 mph - N/A   Clear
10:35 PM 30.9 °F 27.5 °F 18.1 °F 59% 30.40 in 10.0 mi NNW 3.5 mph - N/A   Clear
10:54 PM 31.8 °F 28.5 °F 18.1 °F 57% 30.40 in 10.0 mi North 3.5 mph - N/A   Clear
11:15 PM 31.1 °F 25.4 °F 18.1 °F 59% 30.40 in 10.0 mi North 5.8 mph - N/A   Clear
11:35 PM 30.7 °F 27.3 °F 18.3 °F 60% 30.40 in 10.0 mi North 3.5 mph - N/A   Clear
11:54 PM 30.9 °F - 18.3 °F 60% 30.40 in 10.0 mi Calm Calm - N/A   Clear